User: anonymous   Login
Location: Newark
(48.6461°N, 4.3644°W)
Time: 11:49:21
(UTC+00:00)
Language:

deb Explorer IX - Orbit

View from above orbital plane
View from above orbital plane
View from above satellite
View from above satellite

Ground track
Ground track

The orbit data is extracted from the following two-line orbital elements,

1    85U 61004C   20026.36566042 +.00002853 +00000-0 +64158-3 0  9991
2    85 038.7709 030.6726 0383881 266.3737 089.3040 14.20288053910746
Epoch (UTC): 26 January 2020 08:46:33
Eccentricity: 0.0383881
inclination: 38.7709°
perigee height: 548 km
apogee height: 1101 km
right ascension of ascending node: 30.6726°
argument of perigee: 266.3737°
revolutions per day: 14.20288053
mean anomaly at epoch: 89.3040°
orbit number at epoch: 91074

The dashed part of the orbit path shows where the satellite is in the earth's shadow,  

DLR